START_TIME,STEP,MOV.,M6,t_acc.,M7,t_acc.,M19,t_acc.,H36,t_acc.
1981-08-27 21:00:27.860 ,2,0,0.,12.0,0.,12.0,0.,12.0,0.,12.0
1981-08-27 21:00:39.860 ,2,0,0.,12.0,0.,12.0,0.,12.0,0.,12.0
1981-08-27 21:00:51.860 ,1,1,0.,12.0,0.,12.0,0.,12.0,0.,12.0
1981-08-27 21:01:03.860 ,1,1,0.,12.0,0.,12.0,0.,12.0,0.,12.0
1981-08-27 21:01:15.860 ,1,0,0.,12.0,0.,12.0,0.,12.0,0.,12.0
1981-08-27 21:01:27.860 ,1,0,0.,12.0,0.,12.0,0.,12.0,0.,12.0
1981-08-27 21:01:39.860 ,0,1,0.,12.0,0.,12.0,0.,12.0,0.,12.0
1981-08-27 21:01:51.860 ,0,1,0.,12.0,0.,12.0,0.,12.0,0.,12.0
1981-08-27 21:02:03.860 ,0,0,0.,12.0,0.,12.0,0.,12.0,0.,12.0
1981-08-27 21:02:15.860 ,0,0,0.,12.0,0.,12.0,0.,12.0,0.,12.0
1981-08-27 21:02:27.860 ,0,1,0.,12.0,0.,12.0,0.,12.0,0.,12.0
1981-08-27 21:02:39.860 ,0,1,0.,12.0,0.,12.0,0.,12.0,0.,12.0
1981-08-27 21:02:51.860 ,0,0,0.,12.0,0.,12.0,0.,12.0,0.,12.0
1981-08-27 21:03:03.860 ,0,0,0.,12.0,0.,12.0,0.,12.0,0.,12.0
1981-08-27 21:03:15.860 ,1,1,0.,12.0,0.,12.0,0.,12.0,0.,12.0
1981-08-27 21:03:27.860 ,1,1,0.,12.0,0.,12.0,0.,12.0,0.,12.0
1981-08-27 21:03:39.860 ,1,0,0.,12.0,0.,12.0,0.,12.0,0.,12.0
1981-08-27 21:03:51.860 ,1,0,0.,12.0,0.,12.0,0.,12.0,0.,12.0
1981-08-27 21:04:03.860 ,2,1,0.,12.0,0.,12.0,0.,12.0,0.,12.0
1981-08-27 21:04:15.860 ,2,1,0.,12.0,0.,12.0,0.,12.0,0.,12.0
1981-08-27 21:04:27.860 ,2,0,0.,12.0,0.,12.0,0.,12.0,0.,12.0
1981-08-27 21:04:39.860 ,2,0,0.,12.0,0.,12.0,0.,12.0,0.,12.0
1981-08-27 21:04:51.860 ,3,1,0.,12.0,0.,12.0,0.,12.0,0.,12.0
1981-08-27 21:05:03.860 ,3,1,0.,12.0,0.,12.0,0.,12.0,0.,12.0
1981-08-27 21:05:15.860 ,3,0,0.,12.0,0.,12.0,0.,12.0,0.,12.0
1981-08-27 21:05:27.860 ,3,0,0.,12.0,0.,12.0,0.,12.0,0.,12.0
1981-08-27 21:05:39.860 ,4,1,0.,12.0,0.,12.0,0.,12.0,0.,12.0
1981-08-27 21:05:51.860 ,4,1,0.,12.0,0.,12.0,0.,12.0,0.,12.0
1981-08-27 21:06:03.860 ,4,0,0.,12.0,0.,12.0,0.,12.0,0.,12.0
1981-08-27 21:06:15.860 ,4,0,0.,12.0,0.,12.0,0.,12.0,0.,12.0
1981-08-27 21:06:27.860 ,5,1,0.,12.0,0.,12.0,0.,12.0,0.,12.0
1981-08-27 21:06:39.860 ,5,1,0.,12.0,0.,12.0,0.,12.0,0.,12.0
1981-08-27 21:06:51.860 ,5,0,0.,12.0,0.,12.0,0.,12.0,0.,12.0
1981-08-27 21:07:03.860 ,5,0,0.,12.0,0.,12.0,0.,12.0,0.,12.0
1981-08-27 21:07:15.860 ,6,1,0.,12.0,0.,12.0,0.,12.0,0.,12.0
1981-08-27 21:07:27.860 ,6,1,0.,12.0,0.,12.0,0.,12.0,0.,12.0
1981-08-27 21:07:39.860 ,6,0,0.,12.0,0.,12.0,0.,12.0,0.,12.0
1981-08-27 21:07:51.860 ,6,0,0.,12.0,0.,12.0,0.,12.0,0.,12.0
1981-08-27 21:08:03.860 ,7,1,0.,12.0,0.,12.0,0.,12.0,0.,12.0
1981-08-27 21:08:15.860 ,7,1,0.,12.0,0.,12.0,0.,12.0,0.,12.0
1981-08-27 21:08:27.860 ,7,0,0.,12.0,0.,12.0,0.,12.0,0.,12.0
1981-08-27 21:08:39.860 ,7,0,0.,12.0,0.,12.0,0.,12.0,0.,12.0
1981-08-27 21:08:51.860 ,7,1,0.,12.0,0.,12.0,0.,12.0,0.,12.0
1981-08-27 21:09:03.860 ,7,1,0.,12.0,0.,12.0,0.,12.0,0.,12.0
1981-08-27 21:09:15.860 ,6,1,0.,12.0,0.,12.0,0.,12.0,0.,12.0
1981-08-27 21:09:27.860 ,6,1,0.,12.0,0.,12.0,0.,12.0,0.,12.0
1981-08-27 21:09:39.860 ,5,1,0.,12.0,0.,12.0,0.,12.0,0.,12.0
1981-08-27 21:09:51.860 ,5,1,0.,12.0,0.,12.0,0.,12.0,0.,12.0
1981-08-27 21:10:03.860 ,4,1,0.,12.0,0.,12.0,0.,12.0,0.,12.0
1981-08-27 21:10:15.860 ,4,1,0.,12.0,0.,12.0,0.,12.0,0.,12.0
1981-08-27 21:10:27.860 ,3,1,1.,12.0,0.,12.0,0.,12.0,0.,12.0
1981-08-27 21:10:39.860 ,3,1,0.,12.0,0.,12.0,0.,12.0,0.,12.0
1981-08-27 21:10:51.860 ,2,1,0.,12.0,0.,12.0,0.,12.0,0.,12.0
1981-08-27 21:11:03.860 ,2,1,0.,12.0,0.,12.0,0.,12.0,0.,12.0
1981-08-27 21:11:15.860 ,1,1,0.,12.0,0.,12.0,0.,12.0,0.,12.0
1981-08-27 21:11:27.860 ,1,1,0.,12.0,0.,12.0,0.,12.0,0.,12.0
1981-08-27 21:11:39.860 ,0,1,0.,12.0,0.,12.0,0.,12.0,0.,12.0
1981-08-27 21:11:51.860 ,0,1,0.,12.0,0.,12.0,0.,12.0,0.,12.0
1981-08-27 21:12:03.860 ,0,1,0.,12.0,0.,12.0,0.,12.0,0.,12.0
1981-08-27 21:12:15.860 ,0,1,0.,12.0,0.,12.0,0.,12.0,0.,12.0
1981-08-27 21:12:27.860 ,1,1,0.,12.0,0.,12.0,0.,12.0,0.,12.0
1981-08-27 21:12:39.860 ,1,1,0.,12.0,0.,12.0,0.,12.0,0.,12.0
1981-08-27 21:12:51.860 ,2,1,0.,12.0,0.,12.0,0.,12.0,0.,12.0
1981-08-27 21:13:03.860 ,2,1,0.,12.0,0.,12.0,0.,12.0,0.,12.0
1981-08-27 21:13:15.860 ,3,1,0.,12.0,0.,12.0,0.,12.0,0.,12.0
1981-08-27 21:13:27.860 ,3,1,0.,12.0,0.,12.0,0.,12.0,0.,12.0
1981-08-27 21:13:39.860 ,4,1,0.,12.0,0.,12.0,0.,12.0,0.,12.0
1981-08-27 21:13:51.860 ,4,1,0.,12.0,0.,12.0,0.,12.0,0.,12.0
1981-08-27 21:14:03.860 ,5,1,0.,12.0,0.,12.0,0.,12.0,0.,12.0
1981-08-27 21:14:15.860 ,5,1,0.,12.0,0.,12.0,0.,12.0,0.,12.0
1981-08-27 21:14:27.860 ,6,1,0.,12.0,0.,12.0,0.,12.0,0.,12.0
1981-08-27 21:14:39.860 ,6,1,0.,12.0,0.,12.0,0.,12.0,0.,12.0
1981-08-27 21:14:51.860 ,7,1,0.,12.0,0.,12.0,0.,12.0,0.,12.0
1981-08-27 21:15:03.860 ,7,1,0.,12.0,0.,12.0,0.,12.0,0.,12.0
1981-08-27 21:15:15.860 ,7,1,0.,12.0,0.,12.0,0.,12.0,0.,12.0
1981-08-27 21:15:27.860 ,7,1,0.,12.0,0.,12.0,0.,12.0,0.,12.0
1981-08-27 21:15:39.860 ,7,0,0.,12.0,0.,12.0,0.,12.0,0.,12.0
1981-08-27 21:15:51.860 ,7,0,0.,12.0,0.,12.0,0.,12.0,0.,12.0
1981-08-27 21:16:03.860 ,6,1,0.,12.0,0.,12.0,0.,12.0,0.,12.0
1981-08-27 21:16:15.860 ,6,1,0.,12.0,0.,12.0,0.,12.0,0.,12.0
1981-08-27 21:16:27.860 ,6,0,0.,12.0,0.,12.0,0.,12.0,0.,12.0
1981-08-27 21:16:39.860 ,6,0,0.,12.0,0.,12.0,0.,12.0,0.,12.0
1981-08-27 21:16:51.860 ,5,1,0.,12.0,0.,12.0,0.,12.0,0.,12.0
1981-08-27 21:17:03.860 ,5,1,0.,12.0,0.,12.0,0.,12.0,0.,12.0
1981-08-27 21:17:15.860 ,5,0,0.,12.0,0.,12.0,0.,12.0,0.,12.0
1981-08-27 21:17:27.860 ,5,0,0.,12.0,0.,12.0,0.,12.0,0.,12.0
1981-08-27 21:17:39.860 ,4,1,0.,12.0,0.,12.0,0.,12.0,0.,12.0
1981-08-27 21:17:51.860 ,4,1,0.,12.0,0.,12.0,0.,12.0,0.,12.0
1981-08-27 21:18:03.860 ,4,0,0.,12.0,0.,12.0,0.,12.0,0.,12.0
1981-08-27 21:18:15.860 ,4,0,0.,12.0,0.,12.0,0.,12.0,0.,12.0
1981-08-27 21:18:27.860 ,3,1,0.,12.0,0.,12.0,0.,12.0,0.,12.0
1981-08-27 21:18:39.860 ,3,1,0.,12.0,0.,12.0,0.,12.0,0.,12.0
1981-08-27 21:18:51.860 ,3,0,0.,12.0,0.,12.0,0.,12.0,0.,12.0
1981-08-27 21:19:03.860 ,3,0,0.,12.0,0.,12.0,0.,12.0,0.,12.0
1981-08-27 21:19:15.860 ,0,0,0.,12.0,0.,12.0,0.,12.0,0.,12.0
1981-08-27 21:19:27.860 ,0,0,0.,12.0,0.,12.0,0.,12.0,0.,12.0
1981-08-27 21:19:39.860 ,0,0,0.,12.0,0.,12.0,0.,12.0,0.,12.0
1981-08-27 21:19:51.860 ,0,0,0.,12.0,0.,12.0,0.,12.0,0.,12.0
1981-08-27 21:20:03.860 ,1,1,0.,12.0,0.,12.0,0.,12.0,0.,12.0
1981-08-27 21:20:15.860 ,1,1,0.,12.0,0.,12.0,0.,12.0,0.,12.0
1981-08-27 21:20:27.860 ,1,0,0.,12.0,0.,12.0,0.,12.0,0.,12.0
1981-08-27 21:20:39.860 ,1,0,0.,12.0,0.,12.0,0.,12.0,0.,12.0
1981-08-27 21:20:51.860 ,0,1,0.,12.0,0.,12.0,0.,12.0,0.,12.0
1981-08-27 21:21:03.860 ,0,1,0.,12.0,0.,12.0,0.,12.0,0.,12.0
1981-08-27 21:21:15.860 ,0,0,0.,12.0,0.,12.0,0.,12.0,0.,12.0
1981-08-27 21:21:27.860 ,0,0,0.,12.0,0.,12.0,0.,12.0,0.,12.0
1981-08-27 21:21:39.860 ,0,1,0.,12.0,0.,12.0,0.,12.0,0.,12.0
1981-08-27 21:21:51.860 ,0,1,0.,12.0,0.,12.0,0.,12.0,0.,12.0
1981-08-27 21:22:03.860 ,0,0,0.,12.0,0.,12.0,0.,12.0,0.,12.0
1981-08-27 21:22:15.860 ,0,0,0.,12.0,0.,12.0,0.,12.0,0.,12.0
1981-08-27 21:22:27.860 ,1,1,0.,12.0,0.,12.0,0.,12.0,0.,12.0
1981-08-27 21:22:39.860 ,1,1,0.,12.0,0.,12.0,0.,12.0,0.,12.0
1981-08-27 21:22:51.860 ,1,0,0.,12.0,0.,12.0,0.,12.0,0.,12.0
1981-08-27 21:23:03.860 ,1,0,0.,12.0,0.,12.0,0.,12.0,0.,12.0
1981-08-27 21:23:15.860 ,2,1,0.,12.0,0.,12.0,0.,12.0,0.,12.0
1981-08-27 21:23:27.860 ,2,1,0.,12.0,0.,12.0,0.,12.0,0.,12.0
1981-08-27 21:23:39.860 ,2,0,0.,12.0,0.,12.0,0.,12.0,0.,12.0
1981-08-27 21:23:51.860 ,2,0,0.,12.0,0.,12.0,0.,12.0,0.,12.0
1981-08-27 21:24:03.860 ,3,1,0.,12.0,0.,12.0,0.,12.0,0.,12.0
1981-08-27 21:24:15.860 ,3,1,0.,12.0,0.,12.0,0.,12.0,0.,12.0
1981-08-27 21:24:27.860 ,3,0,0.,12.0,0.,12.0,0.,12.0,0.,12.0
1981-08-27 21:24:39.860 ,3,0,0.,12.0,0.,12.0,0.,12.0,0.,12.0
1981-08-27 21:24:51.860 ,4,1,0.,12.0,0.,12.0,0.,12.0,0.,12.0
1981-08-27 21:25:03.860 ,4,1,0.,12.0,0.,12.0,0.,12.0,0.,12.0
1981-08-27 21:25:15.860 ,4,0,0.,12.0,0.,12.0,0.,12.0,0.,12.0
1981-08-27 21:25:27.860 ,4,0,0.,12.0,0.,12.0,0.,12.0,0.,12.0
1981-08-27 21:25:39.860 ,5,1,0.,12.0,0.,12.0,0.,12.0,0.,12.0
1981-08-27 21:25:51.860 ,5,1,0.,12.0,0.,12.0,0.,12.0,0.,12.0
1981-08-27 21:26:03.860 ,5,0,0.,12.0,0.,12.0,0.,12.0,0.,12.0
1981-08-27 21:26:15.860 ,5,0,0.,12.0,0.,12.0,0.,12.0,0.,12.0
1981-08-27 21:26:27.860 ,6,1,0.,12.0,0.,12.0,0.,12.0,0.,12.0
1981-08-27 21:26:39.860 ,6,1,0.,12.0,0.,12.0,0.,12.0,0.,12.0
1981-08-27 21:26:51.860 ,6,0,0.,12.0,0.,12.0,0.,12.0,0.,12.0
1981-08-27 21:27:03.860 ,6,0,0.,12.0,0.,12.0,0.,12.0,0.,12.0
1981-08-27 21:27:15.860 ,7,1,0.,12.0,0.,12.0,0.,12.0,0.,12.0
1981-08-27 21:27:27.860 ,7,1,0.,12.0,0.,12.0,0.,12.0,0.,12.0
1981-08-27 21:27:39.860 ,7,0,0.,12.0,0.,12.0,0.,12.0,0.,12.0
1981-08-27 21:27:51.860 ,7,0,0.,12.0,0.,12.0,0.,12.0,0.,12.0
1981-08-27 21:28:03.860 ,7,1,0.,12.0,0.,12.0,0.,12.0,0.,12.0
1981-08-27 21:28:15.860 ,7,1,0.,12.0,0.,12.0,0.,12.0,0.,12.0
1981-08-27 21:28:27.860 ,6,1,0.,12.0,0.,12.0,0.,12.0,0.,12.0
1981-08-27 21:28:39.860 ,6,1,0.,12.0,0.,12.0,0.,12.0,0.,12.0
1981-08-27 21:28:51.860 ,5,1,0.,12.0,0.,12.0,0.,12.0,0.,12.0
1981-08-27 21:29:03.860 ,5,1,0.,12.0,0.,12.0,0.,12.0,0.,12.0
1981-08-27 21:29:15.860 ,4,1,0.,12.0,0.,12.0,0.,12.0,0.,12.0
1981-08-27 21:29:27.860 ,4,1,0.,12.0,0.,12.0,0.,12.0,0.,12.0
1981-08-27 21:29:39.860 ,3,1,0.,12.0,0.,12.0,0.,12.0,0.,12.0
1981-08-27 21:29:51.860 ,3,1,0.,12.0,0.,12.0,0.,12.0,0.,12.0
1981-08-27 21:30:03.860 ,2,1,0.,12.0,0.,12.0,0.,12.0,0.,12.0
1981-08-27 21:30:15.860 ,2,1,0.,12.0,0.,12.0,0.,12.0,0.,12.0
1981-08-27 21:30:27.860 ,1,1,0.,12.0,0.,12.0,0.,12.0,0.,12.0
1981-08-27 21:30:39.860 ,1,1,0.,12.0,0.,12.0,0.,12.0,0.,12.0
1981-08-27 21:30:51.860 ,0,1,0.,12.0,0.,12.0,0.,12.0,0.,12.0
1981-08-27 21:31:03.860 ,0,1,0.,12.0,0.,12.0,0.,12.0,0.,12.0
1981-08-27 21:31:15.860 ,0,1,0.,12.0,0.,12.0,0.,12.0,0.,12.0
1981-08-27 21:31:27.860 ,0,1,0.,12.0,0.,12.0,0.,12.0,0.,12.0
1981-08-27 21:31:39.860 ,1,1,0.,12.0,0.,12.0,0.,12.0,0.,12.0
1981-08-27 21:31:51.860 ,1,1,0.,12.0,0.,12.0,0.,12.0,0.,12.0
1981-08-27 21:32:03.860 ,2,1,0.,12.0,0.,12.0,0.,12.0,0.,12.0
1981-08-27 21:32:15.860 ,2,1,0.,12.0,0.,12.0,0.,12.0,0.,12.0
1981-08-27 21:32:27.860 ,3,1,0.,12.0,0.,12.0,0.,12.0,0.,12.0
1981-08-27 21:32:39.860 ,3,1,0.,12.0,0.,12.0,0.,12.0,0.,12.0
1981-08-27 21:32:51.860 ,4,1,0.,12.0,0.,12.0,0.,12.0,0.,12.0
1981-08-27 21:33:03.860 ,4,1,0.,12.0,0.,12.0,0.,12.0,0.,12.0
1981-08-27 21:33:15.860 ,5,1,0.,12.0,0.,12.0,0.,12.0,0.,12.0
1981-08-27 21:33:27.860 ,5,1,0.,12.0,0.,12.0,0.,12.0,0.,12.0
1981-08-27 21:33:39.860 ,6,1,0.,12.0,0.,12.0,0.,12.0,0.,12.0
1981-08-27 21:33:51.860 ,6,1,0.,12.0,0.,12.0,0.,12.0,0.,12.0
1981-08-27 21:34:03.860 ,7,1,0.,12.0,0.,12.0,0.,12.0,0.,12.0
1981-08-27 21:34:15.860 ,7,1,0.,12.0,0.,12.0,0.,12.0,0.,12.0
1981-08-27 21:34:27.860 ,7,1,0.,12.0,0.,12.0,0.,12.0,0.,12.0
1981-08-27 21:34:39.860 ,7,1,0.,12.0,0.,12.0,0.,12.0,0.,12.0
1981-08-27 21:34:51.860 ,0,0,0.,12.0,0.,12.0,0.,12.0,0.,12.0
1981-08-27 21:35:03.860 ,0,0,,0,,0,,0,,0
1981-08-27 21:34:51.860 ,0,0,0.,12.0,0.,12.0,0.,12.0,0.,12.0
1981-08-27 21:35:03.860 ,0,0,0.,12.0,0.,12.0,0.,12.0,0.,12.0
1981-08-27 21:35:15.860 ,6,1,0.,12.0,0.,12.0,0.,12.0,0.,12.0
1981-08-27 21:35:27.860 ,6,1,0.,12.0,0.,12.0,0.,12.0,0.,12.0
1981-08-27 21:35:39.860 ,6,0,0.,12.0,0.,12.0,0.,12.0,0.,12.0
1981-08-27 21:35:51.860 ,6,0,0.,12.0,0.,12.0,0.,12.0,0.,12.0
1981-08-27 21:36:03.860 ,5,1,0.,12.0,0.,12.0,0.,12.0,0.,12.0
1981-08-27 21:36:15.860 ,5,1,0.,12.0,0.,12.0,0.,12.0,0.,12.0
1981-08-27 21:36:27.860 ,5,0,0.,12.0,0.,12.0,0.,12.0,0.,12.0
1981-08-27 21:36:39.860 ,5,0,0.,12.0,0.,12.0,0.,12.0,0.,12.0
1981-08-27 21:36:51.860 ,4,1,0.,12.0,0.,12.0,0.,12.0,0.,12.0
1981-08-27 21:37:03.860 ,4,1,0.,12.0,0.,12.0,0.,12.0,0.,12.0
1981-08-27 21:37:15.860 ,4,0,0.,12.0,0.,12.0,0.,12.0,0.,12.0
1981-08-27 21:37:27.860 ,4,0,0.,12.0,0.,12.0,0.,12.0,0.,12.0
1981-08-27 21:37:39.860 ,3,1,0.,12.0,0.,12.0,0.,12.0,0.,12.0
1981-08-27 21:37:51.860 ,3,1,0.,12.0,0.,12.0,0.,12.0,0.,12.0
1981-08-27 21:38:03.860 ,3,0,0.,12.0,0.,12.0,0.,12.0,0.,12.0
1981-08-27 21:38:15.860 ,3,0,0.,12.0,0.,12.0,0.,12.0,0.,12.0
1981-08-27 21:38:27.860 ,3,0,0.,12.0,0.,12.0,0.,12.0,0.,12.0
1981-08-27 21:38:39.860 ,3,0,,0,,0,,0,,0
1981-08-27 21:38:51.860 ,2,0,0.,12.0,0.,12.0,0.,12.0,0.,12.0
1981-08-27 21:39:03.860 ,2,0,0.,12.0,0.,12.0,0.,12.0,0.,12.0
1981-08-27 21:39:15.860 ,1,1,0.,12.0,0.,12.0,0.,12.0,0.,12.0
1981-08-27 21:39:27.860 ,1,1,0.,12.0,0.,12.0,0.,12.0,0.,12.0
1981-08-27 21:39:39.860 ,1,0,0.,12.0,0.,12.0,0.,12.0,0.,12.0
1981-08-27 21:39:51.860 ,1,0,0.,12.0,0.,12.0,0.,12.0,0.,12.0
1981-08-27 21:40:03.860 ,0,1,0.,12.0,0.,12.0,0.,12.0,0.,12.0
1981-08-27 21:40:15.860 ,0,1,0.,12.0,0.,12.0,0.,12.0,0.,12.0
1981-08-27 21:40:27.860 ,0,0,0.,12.0,0.,12.0,0.,12.0,0.,12.0
1981-08-27 21:40:39.860 ,0,0,0.,12.0,0.,12.0,0.,12.0,0.,12.0
1981-08-27 21:40:51.860 ,0,1,0.,12.0,0.,12.0,0.,12.0,0.,12.0
1981-08-27 21:41:03.860 ,0,1,0.,12.0,0.,12.0,0.,12.0,0.,12.0
1981-08-27 21:41:15.860 ,0,0,0.,12.0,0.,12.0,0.,12.0,0.,12.0
1981-08-27 21:41:27.860 ,0,0,0.,12.0,0.,12.0,0.,12.0,0.,12.0
1981-08-27 21:41:39.860 ,1,1,0.,12.0,0.,12.0,0.,12.0,0.,12.0
1981-08-27 21:41:51.860 ,1,1,0.,12.0,0.,12.0,0.,12.0,0.,12.0
1981-08-27 21:42:03.860 ,1,0,0.,12.0,0.,12.0,0.,12.0,0.,12.0
1981-08-27 21:42:15.860 ,1,0,0.,12.0,0.,12.0,0.,12.0,0.,12.0
1981-08-27 21:42:27.860 ,2,1,0.,12.0,0.,12.0,0.,12.0,0.,12.0
1981-08-27 21:42:39.860 ,2,1,0.,12.0,0.,12.0,0.,12.0,0.,12.0
1981-08-27 21:42:51.860 ,2,0,0.,12.0,0.,12.0,0.,12.0,0.,12.0
1981-08-27 21:43:03.860 ,2,0,0.,12.0,0.,12.0,0.,12.0,0.,12.0
1981-08-27 21:43:15.860 ,3,1,0.,12.0,0.,12.0,0.,12.0,0.,12.0
1981-08-27 21:43:27.860 ,3,1,0.,12.0,0.,12.0,0.,12.0,0.,12.0
1981-08-27 21:43:39.860 ,3,0,0.,12.0,0.,12.0,0.,12.0,0.,12.0
1981-08-27 21:43:51.860 ,3,0,0.,12.0,0.,12.0,0.,12.0,0.,12.0
1981-08-27 21:44:03.860 ,4,1,0.,12.0,0.,12.0,0.,12.0,0.,12.0
1981-08-27 21:44:15.860 ,4,1,0.,12.0,0.,12.0,0.,12.0,0.,12.0
1981-08-27 21:44:27.860 ,4,0,0.,12.0,0.,12.0,0.,12.0,0.,12.0
1981-08-27 21:44:39.860 ,4,0,0.,12.0,0.,12.0,0.,12.0,0.,12.0
1981-08-27 21:44:51.860 ,5,1,0.,12.0,0.,12.0,0.,12.0,0.,12.0
1981-08-27 21:45:03.860 ,5,1,0.,12.0,0.,12.0,0.,12.0,0.,12.0
1981-08-27 21:45:15.860 ,5,0,0.,12.0,0.,12.0,0.,12.0,0.,12.0
1981-08-27 21:45:27.860 ,5,0,0.,12.0,0.,12.0,0.,12.0,0.,12.0
1981-08-27 21:45:39.860 ,6,1,0.,12.0,0.,12.0,0.,12.0,0.,12.0
1981-08-27 21:45:51.860 ,6,1,0.,12.0,0.,12.0,0.,12.0,0.,12.0
1981-08-27 21:46:03.860 ,6,0,0.,12.0,0.,12.0,0.,12.0,0.,12.0
1981-08-27 21:46:15.860 ,6,0,0.,12.0,0.,12.0,0.,12.0,0.,12.0
1981-08-27 21:46:27.860 ,7,1,0.,12.0,0.,12.0,0.,12.0,0.,12.0
1981-08-27 21:46:39.860 ,7,1,0.,12.0,0.,12.0,0.,12.0,0.,12.0
1981-08-27 21:46:51.860 ,7,0,0.,12.0,0.,12.0,0.,12.0,0.,12.0
1981-08-27 21:47:03.860 ,7,0,0.,12.0,0.,12.0,0.,12.0,0.,12.0
1981-08-27 21:47:15.860 ,7,1,0.,12.0,0.,12.0,0.,12.0,0.,12.0
1981-08-27 21:47:27.860 ,7,1,0.,12.0,0.,12.0,0.,12.0,0.,12.0
1981-08-27 21:47:39.860 ,6,1,0.,12.0,0.,12.0,0.,12.0,0.,12.0
1981-08-27 21:47:51.860 ,6,1,0.,12.0,0.,12.0,0.,12.0,0.,12.0
1981-08-27 21:48:03.860 ,5,1,0.,12.0,0.,12.0,0.,12.0,0.,12.0
1981-08-27 21:48:15.860 ,5,1,0.,12.0,0.,12.0,0.,12.0,0.,12.0
1981-08-27 21:48:27.860 ,4,1,0.,12.0,0.,12.0,0.,12.0,0.,12.0
1981-08-27 21:48:39.860 ,4,1,0.,12.0,0.,12.0,0.,12.0,0.,12.0
1981-08-27 21:48:51.860 ,3,1,0.,12.0,0.,12.0,0.,12.0,0.,12.0
1981-08-27 21:49:03.860 ,3,1,0.,12.0,0.,12.0,0.,12.0,0.,12.0
1981-08-27 21:49:15.860 ,2,1,0.,12.0,0.,12.0,0.,12.0,0.,12.0
1981-08-27 21:49:27.860 ,2,1,0.,12.0,0.,12.0,0.,12.0,0.,12.0
1981-08-27 21:49:39.860 ,1,1,0.,12.0,0.,12.0,0.,12.0,0.,12.0
1981-08-27 21:49:51.860 ,1,1,0.,12.0,0.,12.0,0.,12.0,0.,12.0
1981-08-27 21:50:03.860 ,0,1,0.,12.0,0.,12.0,0.,12.0,0.,12.0
1981-08-27 21:50:15.860 ,0,1,0.,12.0,0.,12.0,0.,12.0,0.,12.0
1981-08-27 21:50:27.860 ,0,1,0.,12.0,0.,12.0,0.,12.0,0.,12.0
1981-08-27 21:50:39.860 ,0,1,0.,12.0,0.,12.0,0.,12.0,0.,12.0
1981-08-27 21:50:51.860 ,1,1,0.,12.0,0.,12.0,0.,12.0,0.,12.0
1981-08-27 21:51:03.860 ,1,1,0.,12.0,0.,12.0,0.,12.0,0.,12.0
1981-08-27 21:51:15.860 ,2,1,0.,12.0,0.,12.0,0.,12.0,0.,12.0
1981-08-27 21:51:27.860 ,2,1,0.,12.0,0.,12.0,0.,12.0,0.,12.0
1981-08-27 21:51:39.860 ,3,1,0.,12.0,0.,12.0,0.,12.0,0.,12.0
1981-08-27 21:51:51.860 ,3,1,0.,12.0,0.,12.0,0.,12.0,0.,12.0
1981-08-27 21:52:03.860 ,4,1,0.,12.0,0.,12.0,0.,12.0,0.,12.0
1981-08-27 21:52:15.860 ,4,1,0.,12.0,0.,12.0,0.,12.0,0.,12.0
1981-08-27 21:52:27.860 ,5,1,0.,12.0,0.,12.0,0.,12.0,0.,12.0
1981-08-27 21:52:39.860 ,5,1,0.,12.0,0.,12.0,0.,12.0,0.,12.0
1981-08-27 21:52:51.860 ,6,1,0.,12.0,0.,12.0,0.,12.0,0.,12.0
1981-08-27 21:53:03.860 ,6,1,0.,12.0,0.,12.0,0.,12.0,0.,12.0
1981-08-27 21:53:15.860 ,7,1,0.,12.0,0.,12.0,0.,12.0,0.,12.0
1981-08-27 21:53:27.860 ,7,1,0.,12.0,0.,12.0,0.,12.0,0.,12.0
1981-08-27 21:53:39.860 ,7,1,0.,12.0,0.,12.0,0.,12.0,0.,12.0
1981-08-27 21:53:51.860 ,7,1,0.,12.0,0.,12.0,0.,12.0,0.,12.0
1981-08-27 21:54:03.860 ,7,0,0.,12.0,0.,12.0,0.,12.0,0.,12.0
1981-08-27 21:54:15.860 ,7,0,0.,12.0,0.,12.0,0.,12.0,0.,12.0
1981-08-27 21:54:27.860 ,6,1,0.,12.0,0.,12.0,0.,12.0,0.,12.0
1981-08-27 21:54:39.860 ,6,1,0.,12.0,0.,12.0,0.,12.0,0.,12.0
1981-08-27 21:54:51.860 ,6,0,0.,12.0,0.,12.0,0.,12.0,0.,12.0
1981-08-27 21:55:03.860 ,6,0,0.,12.0,0.,12.0,0.,12.0,0.,12.0
1981-08-27 21:55:15.860 ,5,1,0.,12.0,0.,12.0,0.,12.0,0.,12.0
1981-08-27 21:55:27.860 ,5,1,0.,12.0,0.,12.0,0.,12.0,0.,12.0
1981-08-27 21:55:39.860 ,5,0,0.,12.0,0.,12.0,0.,12.0,0.,12.0
1981-08-27 21:55:51.860 ,5,0,0.,12.0,0.,12.0,0.,12.0,0.,12.0
1981-08-27 21:56:03.860 ,4,1,0.,12.0,0.,12.0,0.,12.0,0.,12.0
1981-08-27 21:56:15.860 ,4,1,0.,12.0,0.,12.0,0.,12.0,0.,12.0
1981-08-27 21:56:27.860 ,4,0,0.,12.0,0.,12.0,0.,12.0,0.,12.0
1981-08-27 21:56:39.860 ,4,0,0.,12.0,0.,12.0,0.,12.0,0.,12.0
1981-08-27 21:56:51.860 ,3,1,0.,12.0,0.,12.0,0.,12.0,0.,12.0
1981-08-27 21:57:03.860 ,3,1,0.,12.0,0.,12.0,0.,12.0,0.,12.0
1981-08-27 21:57:15.860 ,3,0,0.,12.0,0.,12.0,0.,12.0,0.,12.0
1981-08-27 21:57:27.860 ,3,0,0.,12.0,0.,12.0,0.,12.0,0.,12.0
1981-08-27 21:57:39.860 ,2,1,0.,12.0,0.,12.0,0.,12.0,0.,12.0
1981-08-27 21:57:51.860 ,2,1,0.,12.0,0.,12.0,0.,12.0,0.,12.0
1981-08-27 21:58:03.860 ,2,0,0.,12.0,0.,12.0,0.,12.0,0.,12.0
1981-08-27 21:58:15.860 ,2,0,0.,12.0,0.,12.0,0.,12.0,0.,12.0
1981-08-27 21:58:27.860 ,1,1,0.,12.0,0.,12.0,0.,12.0,0.,12.0
1981-08-27 21:58:39.860 ,1,1,0.,12.0,0.,12.0,0.,12.0,0.,12.0
1981-08-27 21:58:51.860 ,1,0,0.,12.0,0.,12.0,0.,12.0,0.,12.0
1981-08-27 21:59:03.860 ,1,0,0.,12.0,0.,12.0,0.,12.0,0.,12.0
1981-08-27 21:59:15.860 ,0,1,0.,12.0,0.,12.0,0.,12.0,0.,12.0
1981-08-27 21:59:27.860 ,0,1,0.,12.0,0.,12.0,0.,12.0,0.,12.0
1981-08-27 21:59:39.860 ,0,0,0.,12.0,0.,12.0,0.,12.0,0.,12.0
1981-08-27 21:59:51.860 ,0,0,0.,12.0,0.,12.0,0.,12.0,0.,12.0
1981-08-27 22:00:03.860 ,0,1,0.,12.0,0.,12.0,0.,12.0,0.,12.0
1981-08-27 22:00:15.860 ,0,1,0.,12.0,0.,12.0,0.,12.0,0.,12.0
1981-08-27 22:00:27.860 ,0,0,0.,12.0,0.,12.0,0.,12.0,0.,12.0
1981-08-27 22:00:39.860 ,0,0,0.,12.0,0.,12.0,0.,12.0,0.,12.0
1981-08-27 22:00:51.860 ,1,1,0.,12.0,0.,12.0,0.,12.0,0.,12.0
1981-08-27 22:01:03.860 ,1,1,0.,12.0,0.,12.0,0.,12.0,0.,12.0
1981-08-27 22:01:15.860 ,1,0,0.,12.0,0.,12.0,0.,12.0,0.,12.0
1981-08-27 22:01:27.860 ,1,0,0.,12.0,0.,12.0,0.,12.0,0.,12.0
1981-08-27 22:01:39.860 ,2,1,0.,12.0,0.,12.0,0.,12.0,0.,12.0
1981-08-27 22:01:51.860 ,2,1,0.,12.0,0.,12.0,0.,12.0,0.,12.0
1981-08-27 22:02:03.860 ,2,0,0.,12.0,0.,12.0,0.,12.0,0.,12.0
1981-08-27 22:02:15.860 ,2,0,0.,12.0,0.,12.0,0.,12.0,0.,12.0
1981-08-27 22:02:27.860 ,3,1,0.,12.0,0.,12.0,0.,12.0,0.,12.0
1981-08-27 22:02:39.860 ,3,1,0.,12.0,0.,12.0,0.,12.0,0.,12.0
1981-08-27 22:02:51.860 ,3,0,0.,12.0,0.,12.0,0.,12.0,0.,12.0
1981-08-27 22:03:03.860 ,3,0,0.,12.0,0.,12.0,0.,12.0,0.,12.0
1981-08-27 22:03:15.860 ,4,1,0.,12.0,0.,12.0,0.,12.0,0.,12.0
1981-08-27 22:03:27.860 ,4,1,0.,12.0,0.,12.0,0.,12.0,0.,12.0
1981-08-27 22:03:39.860 ,4,0,0.,12.0,0.,12.0,0.,12.0,0.,12.0
1981-08-27 22:03:51.860 ,4,0,0.,12.0,0.,12.0,0.,12.0,0.,12.0
1981-08-27 22:04:03.860 ,5,1,0.,12.0,0.,12.0,0.,12.0,0.,12.0
1981-08-27 22:04:15.860 ,5,1,0.,12.0,0.,12.0,0.,12.0,0.,12.0
1981-08-27 22:04:27.860 ,5,0,0.,12.0,0.,12.0,0.,12.0,0.,12.0
1981-08-27 22:04:39.860 ,5,0,0.,12.0,0.,12.0,0.,12.0,0.,12.0
1981-08-27 22:04:51.860 ,6,1,0.,12.0,0.,12.0,0.,12.0,0.,12.0
1981-08-27 22:05:03.860 ,6,1,0.,12.0,0.,12.0,0.,12.0,0.,12.0
1981-08-27 22:05:15.860 ,6,0,0.,12.0,0.,12.0,0.,12.0,0.,12.0
1981-08-27 22:05:27.860 ,6,0,0.,12.0,0.,12.0,0.,12.0,0.,12.0
1981-08-27 22:05:39.860 ,7,1,0.,12.0,0.,12.0,0.,12.0,0.,12.0
1981-08-27 22:05:51.860 ,7,1,0.,12.0,0.,12.0,0.,12.0,0.,12.0
1981-08-27 22:06:03.860 ,7,0,0.,12.0,0.,12.0,0.,12.0,0.,12.0
1981-08-27 22:06:15.860 ,7,0,0.,12.0,0.,12.0,0.,12.0,0.,12.0
1981-08-27 22:06:27.860 ,7,1,0.,12.0,0.,12.0,0.,12.0,0.,12.0
1981-08-27 22:06:39.860 ,7,1,0.,12.0,0.,12.0,0.,12.0,0.,12.0
1981-08-27 22:06:51.860 ,6,1,0.,12.0,0.,12.0,0.,12.0,0.,12.0
1981-08-27 22:07:03.860 ,6,1,0.,12.0,0.,12.0,0.,12.0,0.,12.0
1981-08-27 22:07:15.860 ,5,1,0.,12.0,0.,12.0,0.,12.0,0.,12.0
1981-08-27 22:07:27.860 ,5,1,0.,12.0,0.,12.0,0.,12.0,0.,12.0
1981-08-27 22:07:39.860 ,4,1,0.,12.0,0.,12.0,0.,12.0,0.,12.0
1981-08-27 22:07:51.860 ,4,1,0.,12.0,0.,12.0,0.,12.0,0.,12.0
1981-08-27 22:08:03.860 ,3,1,0.,12.0,0.,12.0,0.,12.0,0.,12.0
1981-08-27 22:08:15.860 ,3,1,0.,12.0,0.,12.0,0.,12.0,0.,12.0
1981-08-27 22:08:27.860 ,2,1,0.,12.0,0.,12.0,0.,12.0,0.,12.0
1981-08-27 22:08:39.860 ,2,1,0.,12.0,0.,12.0,0.,12.0,0.,12.0
1981-08-27 22:08:51.860 ,1,1,0.,12.0,0.,12.0,0.,12.0,0.,12.0
1981-08-27 22:09:03.860 ,1,1,0.,12.0,0.,12.0,0.,12.0,0.,12.0
1981-08-27 22:09:15.860 ,0,1,0.,12.0,0.,12.0,0.,12.0,0.,12.0
1981-08-27 22:09:27.860 ,0,1,0.,12.0,0.,12.0,0.,12.0,0.,12.0
1981-08-27 22:09:39.860 ,0,1,0.,12.0,0.,12.0,0.,12.0,0.,12.0
1981-08-27 22:09:51.860 ,0,1,0.,12.0,0.,12.0,0.,12.0,0.,12.0
1981-08-27 22:10:03.860 ,1,1,0.,12.0,0.,12.0,0.,12.0,0.,12.0
1981-08-27 22:10:15.860 ,1,1,0.,12.0,0.,12.0,0.,12.0,0.,12.0
1981-08-27 22:10:27.860 ,2,1,0.,12.0,0.,12.0,0.,12.0,0.,12.0
1981-08-27 22:10:39.860 ,2,1,0.,12.0,0.,12.0,0.,12.0,0.,12.0
1981-08-27 22:10:51.860 ,3,1,0.,12.0,0.,12.0,0.,12.0,0.,12.0
1981-08-27 22:11:03.860 ,3,1,0.,12.0,0.,12.0,0.,12.0,0.,12.0
1981-08-27 22:11:15.860 ,4,1,0.,12.0,0.,12.0,0.,12.0,0.,12.0
1981-08-27 22:11:27.860 ,4,1,0.,12.0,0.,12.0,0.,12.0,0.,12.0
1981-08-27 22:11:39.860 ,5,1,0.,12.0,0.,12.0,0.,12.0,0.,12.0
1981-08-27 22:11:51.860 ,5,1,0.,12.0,0.,12.0,0.,12.0,0.,12.0
1981-08-27 22:12:03.860 ,6,1,0.,12.0,0.,12.0,0.,12.0,0.,12.0
1981-08-27 22:12:15.860 ,6,1,0.,12.0,0.,12.0,0.,12.0,0.,12.0
1981-08-27 22:12:27.860 ,7,1,0.,12.0,0.,12.0,0.,12.0,0.,12.0
1981-08-27 22:12:39.860 ,7,1,0.,12.0,0.,12.0,0.,12.0,0.,12.0
1981-08-27 22:12:51.860 ,7,1,0.,12.0,0.,12.0,0.,12.0,0.,12.0
1981-08-27 22:13:03.860 ,7,1,0.,12.0,0.,12.0,0.,12.0,0.,12.0
1981-08-27 22:13:15.860 ,7,0,0.,12.0,0.,12.0,0.,12.0,0.,12.0
1981-08-27 22:13:27.860 ,7,0,0.,12.0,0.,12.0,0.,12.0,0.,12.0
1981-08-27 22:13:39.860 ,6,1,0.,12.0,0.,12.0,0.,12.0,0.,12.0
1981-08-27 22:13:51.860 ,6,1,0.,12.0,0.,12.0,0.,12.0,0.,12.0
1981-08-27 22:14:03.860 ,6,0,0.,12.0,0.,12.0,0.,12.0,0.,12.0
1981-08-27 22:14:15.860 ,6,0,0.,12.0,0.,12.0,0.,12.0,0.,12.0
1981-08-27 22:14:27.860 ,5,1,0.,12.0,0.,12.0,0.,12.0,0.,12.0
1981-08-27 22:14:39.860 ,5,1,0.,12.0,0.,12.0,0.,12.0,0.,12.0
1981-08-27 22:14:51.860 ,5,0,0.,12.0,0.,12.0,0.,12.0,0.,12.0
1981-08-27 22:15:03.860 ,5,0,0.,12.0,0.,12.0,0.,12.0,0.,12.0
1981-08-27 22:15:15.860 ,4,1,0.,12.0,0.,12.0,0.,12.0,0.,12.0
1981-08-27 22:15:27.860 ,4,1,0.,12.0,0.,12.0,0.,12.0,0.,12.0
1981-08-27 22:15:39.860 ,4,0,0.,12.0,0.,12.0,0.,12.0,0.,12.0
1981-08-27 22:15:51.860 ,4,0,0.,12.0,0.,12.0,0.,12.0,0.,12.0
1981-08-27 22:16:03.860 ,3,1,0.,12.0,0.,12.0,0.,12.0,0.,12.0
1981-08-27 22:16:15.860 ,3,1,0.,12.0,0.,12.0,0.,12.0,0.,12.0
1981-08-27 22:16:27.860 ,3,0,0.,12.0,0.,12.0,0.,12.0,0.,12.0
1981-08-27 22:16:39.860 ,3,0,0.,12.0,0.,12.0,0.,12.0,0.,12.0
1981-08-27 22:16:51.860 ,2,1,0.,12.0,0.,12.0,0.,12.0,0.,12.0
1981-08-27 22:17:03.860 ,2,1,0.,12.0,0.,12.0,0.,12.0,0.,12.0